TimeCDT,TemperatureF,Dew PointF,Humidity,Sea Level PressureIn,VisibilityMPH,Wind Direction,Wind SpeedMPH,Gust SpeedMPH,PrecipitationIn,Events,Conditions,WindDirDegrees,DateUTC
12:15 AM,37.4,28.4,70,30.21,10.0,Calm,Calm,-,N/A,,Clear,0,2012-10-29 05:15:00
12:35 AM,37.4,30.2,75,30.21,10.0,Calm,Calm,-,N/A,,Clear,0,2012-10-29 05:35:00
12:55 AM,37.4,28.4,70,30.21,10.0,Calm,Calm,-,N/A,,Clear,0,2012-10-29 05:55:00
1:15 AM,37.4,28.4,70,30.22,10.0,Calm,Calm,-,N/A,,Clear,0,2012-10-29 06:15:00
1:35 AM,37.4,30.2,75,30.22,10.0,Calm,Calm,-,N/A,,Clear,0,2012-10-29 06:35:00
1:55 AM,37.4,30.2,75,30.22,10.0,Calm,Calm,-,N/A,,Clear,0,2012-10-29 06:55:00
2:15 AM,37.4,28.4,70,30.22,10.0,Calm,Calm,-,N/A,,Clear,0,2012-10-29 07:15:00
2:35 AM,35.6,28.4,75,30.22,10.0,Calm,Calm,-,N/A,,Clear,0,2012-10-29 07:35:00
2:55 AM,35.6,26.6,70,30.22,10.0,Calm,Calm,-,N/A,,Clear,0,2012-10-29 07:55:00
3:15 AM,35.6,26.6,70,30.21,10.0,Calm,Calm,-,N/A,,Clear,0,2012-10-29 08:15:00
3:35 AM,33.8,28.4,81,30.22,10.0,Calm,Calm,-,N/A,,Clear,0,2012-10-29 08:35:00
3:55 AM,35.6,28.4,75,30.22,10.0,Calm,Calm,-,N/A,,Clear,0,2012-10-29 08:55:00
4:15 AM,33.8,28.4,81,30.21,10.0,Calm,Calm,-,N/A,,Clear,0,2012-10-29 09:15:00
4:35 AM,33.8,28.4,81,30.22,10.0,Calm,Calm,-,N/A,,Clear,0,2012-10-29 09:35:00
4:55 AM,33.8,28.4,81,30.22,10.0,Calm,Calm,-,N/A,,Clear,0,2012-10-29 09:55:00
5:15 AM,35.6,28.4,75,30.21,10.0,Calm,Calm,-,N/A,,Clear,0,2012-10-29 10:15:00
5:55 AM,33.8,26.6,75,30.22,10.0,Calm,Calm,-,N/A,,Clear,0,2012-10-29 10:55:00
6:15 AM,33.8,28.4,81,30.22,10.0,Calm,Calm,-,N/A,,Clear,0,2012-10-29 11:15:00
6:35 AM,33.8,28.4,81,30.22,10.0,Calm,Calm,-,N/A,,Clear,0,2012-10-29 11:35:00
6:55 AM,33.8,28.4,81,30.23,10.0,Calm,Calm,-,N/A,,Clear,0,2012-10-29 11:55:00
7:15 AM,33.8,26.6,75,30.22,10.0,Calm,Calm,-,N/A,,Clear,0,2012-10-29 12:15:00
7:35 AM,33.8,28.4,81,30.22,10.0,Calm,Calm,-,N/A,,Clear,0,2012-10-29 12:35:00
7:55 AM,33.8,28.4,81,30.23,10.0,Calm,Calm,-,N/A,,Clear,0,2012-10-29 12:55:00
8:15 AM,33.8,26.6,75,30.24,10.0,Calm,Calm,-,N/A,,Clear,0,2012-10-29 13:15:00
8:35 AM,33.8,28.4,81,30.24,10.0,Calm,Calm,-,N/A,,Clear,0,2012-10-29 13:35:00
8:55 AM,39.2,32.0,75,30.25,10.0,Calm,Calm,-,N/A,,Clear,0,2012-10-29 13:55:00
9:15 AM,44.6,33.8,66,30.26,10.0,Calm,Calm,-,N/A,,Clear,0,2012-10-29 14:15:00
9:35 AM,50.0,37.4,62,30.26,10.0,Calm,Calm,-,N/A,,Clear,0,2012-10-29 14:35:00
9:55 AM,53.6,37.4,54,30.27,10.0,Calm,Calm,-,N/A,,Clear,0,2012-10-29 14:55:00
10:15 AM,55.4,37.4,51,30.27,10.0,Calm,Calm,-,N/A,,Clear,0,2012-10-29 15:15:00
10:35 AM,57.2,37.4,48,30.28,10.0,Calm,Calm,-,N/A,,Clear,0,2012-10-29 15:35:00
10:55 AM,60.8,37.4,42,30.28,10.0,Calm,Calm,-,N/A,,Clear,0,2012-10-29 15:55:00
11:15 AM,62.6,39.2,42,30.28,10.0,Calm,Calm,-,N/A,,Clear,0,2012-10-29 16:15:00
11:35 AM,62.6,39.2,42,30.28,10.0,Calm,Calm,-,N/A,,Clear,0,2012-10-29 16:35:00
11:55 AM,66.2,39.2,37,30.28,10.0,Calm,Calm,-,N/A,,Clear,0,2012-10-29 16:55:00
12:35 PM,69.8,39.2,33,30.27,10.0,Calm,Calm,-,N/A,,Clear,0,2012-10-29 17:35:00
12:55 PM,71.6,39.2,31,30.26,10.0,Calm,Calm,-,N/A,,Clear,0,2012-10-29 17:55:00
1:15 PM,71.6,37.4,29,30.25,10.0,Calm,Calm,-,N/A,,Clear,0,2012-10-29 18:15:00
1:35 PM,73.4,35.6,25,30.24,10.0,Calm,Calm,-,N/A,,Clear,0,2012-10-29 18:35:00
1:55 PM,73.4,35.6,25,30.23,10.0,Calm,Calm,-,N/A,,Clear,0,2012-10-29 18:55:00
2:15 PM,75.2,33.8,22,30.22,10.0,SSW,10.4,-,N/A,,Clear,210,2012-10-29 19:15:00
2:35 PM,75.2,30.2,19,30.21,10.0,WSW,8.1,-,N/A,,Clear,250,2012-10-29 19:35:00
3:35 PM,77.0,32.0,19,30.18,10.0,WSW,12.7,16.1,N/A,,Clear,250,2012-10-29 20:35:00
3:55 PM,75.2,33.8,22,30.17,10.0,WSW,5.8,-,N/A,,Clear,240,2012-10-29 20:55:00
4:15 PM,77.0,30.2,18,30.17,10.0,WSW,11.5,-,N/A,,Clear,250,2012-10-29 21:15:00
4:35 PM,75.2,28.4,18,30.17,10.0,SW,13.8,-,N/A,,Clear,230,2012-10-29 21:35:00
4:55 PM,77.0,28.4,17,30.16,10.0,SW,9.2,-,N/A,,Clear,220,2012-10-29 21:55:00
5:15 PM,75.2,26.6,17,30.16,10.0,West,10.4,-,N/A,,Clear,280,2012-10-29 22:15:00
5:35 PM,75.2,24.8,15,30.16,10.0,WSW,8.1,-,N/A,,Clear,250,2012-10-29 22:35:00
5:55 PM,75.2,26.6,17,30.15,10.0,West,8.1,-,N/A,,Clear,280,2012-10-29 22:55:00
6:15 PM,73.4,24.8,16,30.16,10.0,West,10.4,-,N/A,,Clear,260,2012-10-29 23:15:00
6:35 PM,73.4,21.2,14,30.16,10.0,WNW,11.5,-,N/A,,Clear,290,2012-10-29 23:35:00
6:55 PM,69.8,21.2,16,30.17,10.0,WNW,6.9,-,N/A,,Clear,290,2012-10-29 23:55:00
7:15 PM,66.2,21.2,18,30.17,10.0,WNW,6.9,-,N/A,,Clear,300,2012-10-30 00:15:00
7:35 PM,62.6,23.0,22,30.17,10.0,NW,6.9,-,N/A,,Clear,310,2012-10-30 00:35:00
7:55 PM,57.2,24.8,29,30.18,10.0,NW,6.9,-,N/A,,Clear,310,2012-10-30 00:55:00
8:15 PM,53.6,24.8,33,30.18,10.0,NW,4.6,-,N/A,,Clear,310,2012-10-30 01:15:00
8:35 PM,51.8,24.8,35,30.18,10.0,Calm,Calm,-,N/A,,Clear,0,2012-10-30 01:35:00
8:55 PM,53.6,24.8,33,30.18,10.0,Calm,Calm,-,N/A,,Clear,0,2012-10-30 01:55:00
9:15 PM,51.8,26.6,38,30.18,10.0,Calm,Calm,-,N/A,,Clear,0,2012-10-30 02:15:00
9:35 PM,51.8,26.6,38,30.18,10.0,Calm,Calm,-,N/A,,Clear,0,2012-10-30 02:35:00
9:55 PM,48.2,24.8,40,30.19,10.0,Calm,Calm,-,N/A,,Clear,0,2012-10-30 02:55:00
10:15 PM,48.2,24.8,40,30.19,10.0,Calm,Calm,-,N/A,,Clear,0,2012-10-30 03:15:00
10:35 PM,44.6,24.8,46,30.20,10.0,Calm,Calm,-,N/A,,Clear,0,2012-10-30 03:35:00
10:55 PM,44.6,24.8,46,30.20,10.0,Calm,Calm,-,N/A,,Clear,0,2012-10-30 03:55:00
11:15 PM,44.6,24.8,46,30.20,10.0,Calm,Calm,-,N/A,,Clear,0,2012-10-30 04:15:00
11:35 PM,44.6,24.8,46,30.20,10.0,Calm,Calm,-,N/A,,Clear,0,2012-10-30 04:35:00
11:55 PM,42.8,24.8,49,30.19,10.0,Calm,Calm,-,N/A,,Clear,0,2012-10-30 04:55:00